Tracking 23752 objects as of 24-Oct-2021
HD Live streaming from Space Station
objects crossing your sky now

BREEZE-M DEB

Track BREEZE-M DEB now!
10-day predictions


NORAD ID: 38568
Int'l Code: 2008-011P
Perigee: 491.2 km
Apogee: 25,529.5 km
Inclination: 49.3 °
Period: 447.5 minutes
Semi major axis: 19381 km
RCS: 0.1545 m2 (medium)
Launch date: March 14, 2008
Source: Commonwealth of Independent States (former USSR) (CIS)
Launch site: TYURATAM MISSILE AND SPACE COMPLEX (TTMTR)

Note: This is SATELLITE DEBRIS
aabbcc
Your satellite tracking list
Your tracking list is empty




NASA's NSSDC Master Catalog

Two Line Element Set (TLE):
1 38568U 08011P   21296.54145540  .00009334  00000-0  29960-1 0  9994
2 38568  49.2565 152.9037 6459365 111.6608 325.8813  3.21755995115273
Source of the keplerian elements: AFSPC